[[{"header":{"parameterUnit":"m.s-1","parameterCategory":1,"la1":30.2992,"la2":30.254,"lo1":-89.0895,"lo2":-89.0443,"dy":0.0025,"dx":0.0025,"nx":19,"ny":19,"refTime":"2026-04-20T03:00:00:Z","depth":0,"parameterNumber":2,"parameterNumberName":"U-component_of_WINDS"},"data":[0,0,0,-8.0709,-8.0713,-8.0846,-8.0847,-8.1062,-8.1064,0,0,0,0,0,0,0,0,0,0,0,-8.0696,-8.0698,-8.0709,-8.0713,-8.0846,-8.0847,-8.1061,-8.1064,0,0,0,0,0,0,0,0,0,0,0,-8.0695,-8.0698,-8.0701,-8.0714,-8.0846,-8.0847,-8.1061,-8.0944,0,0,0,0,0,0,0,0,0,0,-8.0807,-8.0821,-8.0697,-8.0701,-8.0715,-8.0846,-8.0847,-8.0938,-8.0951,-8.102,0,-8.1088,0,-8.108,-8.1081,-8.1082,0,0,0,-8.0693,-8.081,-8.0822,-8.0701,-8.0716,-8.0846,-8.078,-8.0945,-8.096,-8.1038,-8.109,-8.1097,-8.1083,-8.1083,-8.1084,-8.1548,-8.1551,0,0,-8.0686,-8.0734,-8.0811,-8.0833,-8.0815,-8.0776,-8.0785,-8.0954,-8.1014,-8.1091,-8.1101,-8.1087,-8.1084,-8.1086,-8.1545,-8.1549,0,0,0,-8.0678,-8.073,-8.0737,-8.0825,-8.0846,-8.0781,-8.0791,-8.1006,-8.1004,-8.1103,-8.1089,-8.1086,-8.1089,-8.1542,-8.1546,-8.175,0,0,0,-8.0672,-8.0725,-8.0735,-8.0766,-8.0844,-8.0928,-8.084,-8.0993,-8.101,-8.1088,-8.1086,-8.1092,-8.1538,-8.1544,-8.1736,-8.1838,0,0,0,-8.0678,-8.0725,-8.0754,-8.0768,-8.0827,-8.0924,-8.0931,-8.0995,-8.1003,-8.1082,-8.1092,-8.1536,-8.1543,-8.1725,-8.1819,-8.1977,0,0,0,-8.0698,-8.0931,-8.0758,-8.1012,-8.0827,-8.1048,-8.0929,-8.1091,-8.1183,-8.1087,-8.1539,-8.1546,-8.1721,-8.1807,-8.1965,-8.2121,-8.219,0,0,-8.1019,-8.0971,-8.1116,-8.0966,-8.1231,-8.1024,-8.1318,-8.1355,-8.1317,-8.1473,-8.1484,-8.1741,-8.1817,-8.1974,-8.2554,-8.261,0,0,0,-8.1235,-8.134,-8.14,-8.1491,-8.1526,-8.1565,-8.1552,-8.1567,-8.1697,-8.1408,-8.1837,-8.1881,-8.1972,-8.2044,-8.2091,-8.2167,-8.1581,-8.158,-8.1579,-8.1759,-8.1699,-8.1937,-8.1895,-8.1985,-8.1971,-8.2039,-8.2056,-8.1967,-8.2071,-8.2117,-8.2476,-8.2563,-8.2598,-8.2678,-8.2192,-8.2193,-8.2194,-8.2194,-8.2225,-8.2367,-8.2246,-8.2435,-8.2371,-8.2528,-8.2524,-8.2457,-8.2596,-8.2435,-8.2512,-8.2345,-8.2661,-8.2727,-8.2209,-8.2206,-8.2205,-8.2203,-8.2202,-8.2564,-8.2622,-8.2636,-8.2763,-8.2868,-8.2816,-8.2956,-8.2891,-8.2831,-8.2907,-8.2952,-8.2948,-8.2939,-8.2932,-8.2934,-8.2935,-8.2936,-8.2937,-8.2938,-8.2912,-8.2921,-8.3046,-8.3106,-8.3157,-8.3217,-8.3206,-8.3255,-8.3293,-8.3235,-8.3235,-8.314,-8.2701,-8.2594,-8.2957,-8.2953,-8.2951,-8.2949,-8.2948,-8.3412,-8.3289,-8.3483,-8.3536,-8.36,-8.3711,-8.3627,-8.3733,-8.3764,-8.3835,-8.3723,-8.3408,-8.3355,-8.3317,-8.3229,-8.3733,-8.3733,-8.3733,-8.3733,-8.3701,-8.3667,-8.3853,-8.3941,-8.4019,-8.3964,-8.4188,-8.4183,-8.4158,-8.4174,-8.4091,-8.3967,-8.3931,-8.3899,-8.3849,-8.3765,-8.4395,-8.4396,-8.4396,-8.4006,-8.3978,-8.4181,-8.4156,-8.4202,-8.4245,-8.4454,-8.4561,-8.4507,-8.4422,-8.4187,-8.4159,-8.3957,-8.3894,-8.3806,-8.3729,-8.3574,0,0]},{"header":{"parameterUnit":"m.s-1","parameterCategory":1,"la1":30.2992,"la2":30.254,"lo1":-89.0895,"lo2":-89.0443,"dy":0.0025,"dx":0.0025,"nx":19,"ny":19,"refTime":"2026-04-20T03:00:00:Z","depth":0,"parameterNumber":3,"parameterNumberName":"V-component_of_WINDS"},"data":[0,0,0,-2.2153,-2.2154,-2.219,-2.219,-2.2247,-2.2248,0,0,0,0,0,0,0,0,0,0,0,-2.2148,-2.2149,-2.2153,-2.2154,-2.219,-2.219,-2.2247,-2.2248,0,0,0,0,0,0,0,0,0,0,0,-2.2148,-2.2148,-2.2149,-2.2154,-2.219,-2.219,-2.2247,-2.2216,0,0,0,0,0,0,0,0,0,0,-2.2179,-2.218,-2.2148,-2.2149,-2.2154,-2.219,-2.219,-2.2214,-2.2218,-2.2235,0,-2.2252,0,-2.2251,-2.2252,-2.2253,0,0,0,-2.2149,-2.2177,-2.2182,-2.2149,-2.2155,-2.219,-2.2173,-2.2216,-2.222,-2.224,-2.2253,-2.2254,-2.2252,-2.2253,-2.2253,-2.2366,-2.2367,0,0,-2.2147,-2.2158,-2.2179,-2.2184,-2.2179,-2.2171,-2.2174,-2.2218,-2.2233,-2.2253,-2.2256,-2.2253,-2.2253,-2.2254,-2.2365,-2.2366,0,0,0,-2.2144,-2.2157,-2.216,-2.2182,-2.2188,-2.2173,-2.2175,-2.2231,-2.2231,-2.2256,-2.2253,-2.2254,-2.2254,-2.2364,-2.2366,-2.2412,0,0,0,-2.2143,-2.2155,-2.2159,-2.2166,-2.2188,-2.221,-2.2187,-2.2228,-2.2233,-2.2253,-2.2254,-2.2255,-2.2364,-2.2365,-2.2409,-2.2433,0,0,0,-2.2144,-2.2155,-2.2162,-2.2167,-2.2183,-2.2209,-2.2212,-2.2229,-2.2231,-2.2253,-2.2255,-2.2363,-2.2365,-2.2407,-2.2428,-2.2466,0,0,0,-2.2147,-2.2204,-2.2163,-2.2226,-2.2182,-2.2238,-2.2211,-2.2252,-2.2276,-2.2254,-2.2364,-2.2366,-2.2406,-2.2426,-2.2463,-2.2499,-2.2515,0,0,-2.2225,-2.2214,-2.225,-2.2214,-2.2279,-2.2231,-2.2303,-2.2315,-2.2307,-2.2347,-2.2349,-2.241,-2.2428,-2.2465,-2.2601,-2.2613,0,0,0,-2.2278,-2.2304,-2.2318,-2.2341,-2.2351,-2.2361,-2.2361,-2.2365,-2.2398,-2.233,-2.2433,-2.2444,-2.2465,-2.2482,-2.2492,-2.251,-2.2374,-2.2373,-2.2373,-2.2404,-2.239,-2.2448,-2.2439,-2.2461,-2.2459,-2.2476,-2.2481,-2.2462,-2.2486,-2.2498,-2.2582,-2.2602,-2.261,-2.2629,-2.2516,-2.2516,-2.2516,-2.2516,-2.2517,-2.2551,-2.2522,-2.2568,-2.2553,-2.2591,-2.2591,-2.2576,-2.2609,-2.2572,-2.259,-2.2551,-2.2625,-2.264,-2.252,-2.2519,-2.2519,-2.2518,-2.2518,-2.2598,-2.2612,-2.2615,-2.2646,-2.2671,-2.2659,-2.2692,-2.2678,-2.2664,-2.2682,-2.2693,-2.2692,-2.2689,-2.2688,-2.2688,-2.2688,-2.2689,-2.2689,-2.2689,-2.2682,-2.2684,-2.2713,-2.2728,-2.2739,-2.2754,-2.2751,-2.2763,-2.2772,-2.2758,-2.2758,-2.2736,-2.2634,-2.2609,-2.2694,-2.2693,-2.2692,-2.2692,-2.2691,-2.2802,-2.2772,-2.2818,-2.283,-2.2844,-2.287,-2.285,-2.2874,-2.2882,-2.2898,-2.2872,-2.2799,-2.2787,-2.2778,-2.2757,-2.2875,-2.2875,-2.2875,-2.2875,-2.2871,-2.2862,-2.2905,-2.2925,-2.2943,-2.2929,-2.2981,-2.298,-2.2973,-2.2977,-2.2958,-2.2928,-2.292,-2.2913,-2.2901,-2.2881,-2.3028,-2.3028,-2.3028,-2.2944,-2.2936,-2.2983,-2.2976,-2.2986,-2.2995,-2.3043,-2.3067,-2.3054,-2.3034,-2.2979,-2.2973,-2.2926,-2.2911,-2.2891,-2.2873,-2.2837,0,0]}]]